Simultaneous Nadir Overpasses (SNOs) Predictions

Prediction of SNOs between AQUA and NOAA-19 Satellite Orbit:

Table of predicted SNOs for the next 14.0 days since TLE Epoch: 4/20/2024
Index Date (AQUA) Time (AQUA) Lat,Lon (AQUA) SZA (AQUA ) Date (NOAA-19) Time (NOAA-19) Lat,Lon (NOAA-19) SZA (NOAA-19 ) Distance(km) Time Diff (sec)
1 04/21/2024 14:27:39 75.77, -40.31 63.55 04/21/2024 14:26:36 75.75, -40.40 63.54 2.95 63
2 04/21/2024 15:17:02 -75.83, 127.17 116.40 04/21/2024 15:17:35 -75.83, 127.12 116.40 1.18 33
3 04/23/2024 18:17:59 -75.28, 83.52 117.68 04/23/2024 18:16:54 -75.17, 80.24 117.73 93.95 65
4 04/23/2024 19:07:33 75.82,-110.40 62.87 04/23/2024 19:07:37 75.80,-110.43 62.85 2.41 4
5 04/25/2024 22:58:00 -75.81, 12.06 117.85 04/25/2024 22:57:43 -75.78, 12.02 117.88 3.47 17
6 04/25/2024 23:47:24 75.86, 179.55 62.20 04/25/2024 23:48:37 75.88, 179.64 62.21 3.03 73
7 04/28/2024 02:48:25 75.77, 134.61 61.43 04/28/2024 02:47:43 75.75, 134.49 61.42 3.52 42
8 04/28/2024 03:37:48 -75.83, -57.92 118.53 04/28/2024 03:38:44 -75.82, -58.03 118.53 3.30 56
9 04/30/2024 06:38:47 -75.77,-102.94 119.25 04/30/2024 06:37:49 -75.75,-102.98 119.26 2.04 58
10 04/30/2024 07:28:11 75.83, 64.53 60.81 04/30/2024 07:28:42 75.85, 64.62 60.83 3.29 31
11 05/02/2024 10:29:03 75.55, 20.16 59.88 05/02/2024 10:27:53 75.47, 18.62 59.83 43.89 70
12 05/02/2024 11:18:30 -75.81,-172.95 119.86 05/02/2024 11:18:49 -75.81,-172.99 119.86 1.06 19



Historial Predications of SNOs between AQUA and NOAA-19
